Flag for Belgium Weather past 2 weeks in Brussels, Belgium

Now
66 °F

Passing clouds.


Feels Like: 66 °F
Forecast: 54 / 62 °F
Wind: 8 mph from Southwest

Location: Brussels National Airport

Current Time: May 27, 2015 at 7:49:20 PM

Latest Report: May 27, 2015 at 6:50 PM


Visibility: N/A

Pressure: 30.12 "Hg

Humidity: 46%

Dew point: 45 °F

Location of BrusselsLocation

Historic Weather in Brussels — Graph

°F

Brussels temperature yesterday

Maximum temperature yesterday: 64 °F (at 5:20 PM)
Minimum temperature yesterday: 43 °F (at 3:20 AM)
Average temperature yesterday: 53 °F

Past Weeks' High & Low Weather Summary

 TemperatureHumidityPressure
High68 °F (May 22, 3:20 PM)100% (May 16, 3:20 PM)30.36 "Hg (May 16, 3:20 PM)
Low39 °F (May 14, 5:20 AM)11% (May 23, 6:50 AM)29.68 "Hg (May 18, 7:50 PM)
Average54 °F70%30.09 "Hg
* Reported May 12 6:20 PM — May 27 6:50 PM, Brussels, Weather by CustomWeather, © 2015

Note: Actual official high and low records may vary slightly from our data, if they occured in-between our weather recording intervals... More about our weather records

Advertising

Brussels weather history for previous 24 hours

 ConditionsComfort  
Time TempWeatherWind HumidityBarometerVisibility
6:50 PM
Wed, May 27
66 °FPassing clouds.8 mph46%30.12 "HgN/A
6:20 PM66 °FSunny.8 mph49%30.12 "Hg10 mi
5:50 PM68 °FPassing clouds.10 mph46%30.15 "HgN/A
5:20 PM66 °FPassing clouds.12 mph46%30.15 "HgN/A
4:50 PM66 °FPassing clouds.12 mph46%30.15 "HgN/A
4:20 PM66 °FPassing clouds.9 mph43%30.18 "HgN/A
3:50 PM64 °FPassing clouds.10 mph46%30.18 "HgN/A
3:20 PM68 °FPassing clouds.10 mph38%30.18 "HgN/A
2:50 PM66 °FPassing clouds.7 mph40%30.18 "HgN/A
2:20 PM64 °FPassing clouds.7 mph46%30.21 "HgN/A
1:50 PM63 °FPassing clouds.6 mph45%30.21 "HgN/A
1:20 PM63 °FPassing clouds.5 mph45%30.24 "HgN/A
12:50 PM63 °FPassing clouds.6 mph42%30.24 "HgN/A
12:20 PM63 °FPassing clouds.5 mph45%30.24 "HgN/A
11:50 AM61 °FPassing clouds.3 mph45%30.24 "HgN/A
11:20 AM61 °FPassing clouds.3 mph48%30.27 "HgN/A
10:50 AM61 °FPassing clouds.1 mph52%30.27 "HgN/A
10:20 AM59 °FSunny.2 mph51%30.27 "Hg10 mi
9:50 AM59 °FSunny.1 mph55%30.27 "Hg10 mi
9:20 AM55 °FSunny.2 mph59%30.27 "Hg10 mi
8:50 AM55 °FSunny.3 mph55%30.27 "Hg10 mi
8:20 AM54 °FSunny.3 mph63%30.27 "Hg10 mi
7:50 AM52 °FSunny.3 mph72%30.27 "Hg10 mi
7:20 AM48 °FSunny.2 mph76%30.27 "Hg10 mi
6:50 AM45 °FSunny.5 mph87%30.27 "Hg10 mi
6:20 AM43 °FClear.5 mph87%30.27 "Hg10 mi
5:50 AM43 °FClear.3 mph87%30.27 "Hg10 mi
5:20 AM43 °FClear.3 mph87%30.27 "Hg10 mi
4:50 AM45 °FClear.2 mph87%30.27 "Hg10 mi
4:20 AM45 °FClear.2 mph81%30.27 "Hg10 mi
3:50 AM46 °FClear.2 mph76%30.27 "Hg10 mi
3:20 AM48 °FClear.2 mph82%30.27 "Hg10 mi
2:50 AM52 °FClear.1 mph62%30.27 "Hg10 mi
2:20 AM50 °FClear.No wind67%30.27 "Hg10 mi
1:50 AM50 °FClear.1 mph71%30.27 "Hg10 mi
1:20 AM50 °FClear.1 mph71%30.27 "Hg10 mi
12:50 AM52 °FClear.2 mph58%30.27 "Hg10 mi
12:20 AM50 °FClear.2 mph71%30.27 "Hg10 mi
11:50 PM
Tue, May 26
50 °FClear.2 mph67%30.27 "Hg10 mi
11:20 PM48 °FClear.3 mph71%30.27 "Hg10 mi
10:50 PM50 °FClear.5 mph67%30.27 "Hg10 mi
10:20 PM50 °FPassing clouds.5 mph67%30.27 "HgN/A
9:50 PM52 °FPassing clouds.6 mph62%30.24 "HgN/A
9:20 PM54 °FPassing clouds.5 mph58%30.24 "HgN/A
8:50 PM57 °FPassing clouds.6 mph51%30.24 "HgN/A
8:20 PM59 °FSunny.9 mph48%30.24 "Hg10 mi
7:50 PM59 °FSunny.10 mph48%30.21 "Hg10 mi
7:20 PM59 °FSunny.13 mph48%30.21 "Hg10 mi
Weather by CustomWeather, © 2015

See weather overviewHow to use our weather pages